STARLINK-1336, 45557

Orbit data source: Space-Track

STARLINK-1336, 45557 is a payload satellite owned by SpaceX/Seattle (US) in LEO that was launched on Wed, 22 Apr 2020 UTC via an FALCON 9 launch vehicle from the Air Force Eastern Test Range (AFETR). Payload-class satellites include a variety of spacecraft equipped with specific instruments for various scientific and technological missions. These include communications satellites like Starlink; space stations such as the ISS; scientific satellites like the Hubble; Earth observation satellites from companies like Planet Labs, Umbra, and HawkEye 360; GPS; miniature CubeSats for education and research; and military/defense satellites.

Loading next visibility...
Identifier
45557, 2020-025AC
Orbit
LEO
Country
Flag of USUS
Related business
Manufacturer
SpaceX/Seattle
Mission
Partially operational Commercial Communications
Bus & Motor
STARLINK, Unknown motor
Mass
260 kg wet, ~248 kg dry
Launch date (UTC)
2020-04-22 (5 years ago)
Launch vehicle
FALCON 9
Launch site
Air Force Eastern Test Range (AFETR)
Object type
Payload
Rocket body
Debris
Shape & HBR
Box + 1 Pan, 4.4 m
Radar Cross Section
13.562 m², Large (>1 m²)

Expand to show TLE details & history
Last TLE update: 8 hours ago

TLE from 8 hours ago
0 STARLINK-1336
1 45557U 20025AC  25258.58341435  .00278993  00000-0  13296-2 0  9991
2 45557  53.0402 111.5721 0008941  98.8578 270.1420 15.81504410  5614
Epoch: 2025-09-15T14:00Z
TLE epoch observation values (Epoch: 2025-09-15T14:00:06.999Z)
Latitude
7.06249°
Longitude
-87.92424°
Altitude
326.441 km
Speed
7.714 km/s
True Right ascension
07h 47m 33s
True Declination
7° 01' 05"
Sunlit
Object was in daylight at epoch
Visualization orbit readout
Latitude
Unknown
Longitude
Unknown
Altitude
Unknown
Speed
Unknown
Apparent Right ascension
Unknown
Apparent Declination
Unknown
Sunlit
N/A
Visualization observer readout
Local Sidereal Time
14:29:42
Azimuth
Unknown
Elevation
Unknown
Doppler factor
Unknown
Orbital elements
Apogee altitude
332.462 km
Perigee altitude
320.473 km
Semi-major axis
6,704.604 km
Eccentricity
0.00089
Inclination
53.0402°
RAAN
111.5721°
Arg. of periapsis
98.8578°
True anomaly
270.03954°
Mean anomaly
270.142°
Eccentric anomaly
270.09077°
Mean motion
3.95352 °/min
Orbital period
91.06 mins
BSTAR
0.0013296
Loading maneuver chart data...
Computing Atmospheric mass density...
Loading historical data...
Loading historical data...
Loading historical data...
Loading historical data...
Loading historical data...
Loading historical data...
Loading historical data...

Documentation

Showing up to 5 results
|